Satellite-Ground Cal/Val Site Overpasses Predictions

Prediction of Satellite NPP Overpassing Cal/Val Site: Antarctic Dome C

Ground Cal/Val Site Location: Latitude: -75.10, Longitude: 123.35; Satellite-Ground Site NADIR distance within 100 km.

Table of predicted overpasses for the next 14.0 days since TLE Epoch: 7/15/2023
Interval Starting Time Ending Time Minimum Distance Time Minimum Distance (km)
1 07/15/2023 14:43:51 07/15/2023 14:44:16 07/15/2023 14:44:04 54.20
2 07/16/2023 07:45:33 07/16/2023 07:45:53 07/16/2023 07:45:43 73.05
3 07/17/2023 07:26:39 07/17/2023 07:27:07 07/17/2023 07:26:53 34.81
4 07/19/2023 15:09:05 07/19/2023 15:09:15 07/19/2023 15:09:10 93.09
5 07/20/2023 14:50:07 07/20/2023 14:50:35 07/20/2023 14:50:21 18.06
6 07/22/2023 07:32:56 07/22/2023 07:33:25 07/22/2023 07:33:11 3.10
7 07/25/2023 14:56:23 07/25/2023 14:56:52 07/25/2023 14:56:37 18.78
8 07/26/2023 14:37:42 07/26/2023 14:37:55 07/26/2023 14:37:49 88.23
9 07/27/2023 07:39:14 07/27/2023 07:39:41 07/27/2023 07:39:28 38.65
